Wind_Speed
20 20 19 17 15 13 11 10 9 7 5 10 10 7 4 2 1 2 5 2 3 4 7 8 13 15 15 14 15 15 18 21 24 27 29 31 31 31 28 27 26 28 28
13 14 14 13 12 12 13 12 10 8 8 11 14 7 6 2 6 8 7 2 4 8 10 11 13 14 15 14 16 16 16 19 24 27 30 33 33 30 31 31 30 29 30
6 8 10 11 12 12 12 12 11 10 8 16 17 9 4 3 4 5 7 5 7 11 13 15 18 15 14 16 17 19 20 22 24 26 27 28 30 34 33 31 31 31 33
12 11 8 10 12 12 12 11 11 10 10 11 9 8 6 5 4 7 10 7 9 13 12 15 15 16 17 17 20 22 24 22 23 25 27 30 35 37 36 35 33 33 37
8 8 11 13 13 12 12 12 12 11 15 12 14 14 13 13 12 15 16 13 10 12 13 17 18 23 23 25 25 27 27 25 28 27 27 31 33 35 37 36 35 36 40
13 11 9 9 14 15 15 14 15 14 18 15 14 13 13 13 14 17 21 21 21 21 22 22 25 25 25 27 30 33 34 35 40 37 35 36 31 30 33 36 37 38 39
17 15 14 14 15 17 18 18 18 19 19 22 16 17 19 17 18 20 24 26 28 30 34 35 32 28 31 32 29 37 38 37 38 42 50 40 34 34 35 37 40 41 41
23 22 20 20 20 22 23 21 22 24 23 26 24 23 25 24 26 26 29 31 34 37 41 41 32 34 37 40 42 44 49 42 40 50 50 43 44 41 38 39 40 41 43
28 28 27 26 24 27 25 21 24 25 25 26 28 30 28 27 28 33 37 39 42 44 49 44 44 43 40 42 46 51 56 46 42 50 56 56 48 46 43 41 43 43 44
36 35 33 34 33 30 29 27 26 28 26 30 30 29 29 31 31 35 41 45 48 52 52 53 50 50 50 47 49 52 55 58 52 56 55 39 44 48 48 45 45 47 48
38 41 41 39 37 36 35 33 33 31 32 34 35 34 32 33 37 42 47 53 56 62 58 58 62 53 53 53 54 57 51 49 62 53 45 45 49 50 47 47 49 48 48
37 38 42 45 46 43 41 39 37 37 37 38 39 41 39 40 43 48 53 56 61 62 59 61 75 53 51 57 62 49 53 60 58 60 66 53 52 50 48 46 49 50 49
49 49 47 46 49 51 50 47 45 42 43 45 48 47 47 52 53 58 58 56 57 62 65 65 25 30 44 44 45 50 53 58 59 60 67 56 46 46 47 48 48 49 50
67 63 61 59 53 52 54 55 52 51 53 52 53 54 58 56 56 56 61 59 65 68 70 57 58 60 61 51 49 55 62 69 63 61 62 45 45 46 48 46 48 49 51
60 61 61 59 54 55 57 55 55 56 57 54 56 57 58 57 61 61 58 58 61 59 58 57 62 61 62 62 64 67 71 68 63 56 44 44 48 46 47 47 49 51 52
52 52 54 55 55 52 56 59 57 57 57 55 57 58 59 64 63 61 58 58 58 63 64 64 66 68 67 66 70 58 59 69 43 44 46 46 47 47 48 48 50 51 50
47 46 48 52 54 57 55 56 61 61 59 58 60 63 63 64 65 61 60 63 65 67 68 70 74 72 67 73 62 64 67 46 42 45 48 47 46 47 46 48 49 48 49
44 44 44 46 48 51 55 59 59 62 65 66 69 70 71 71 72 72 68 69 73 74 72 75 75 72 65 57 64 55 43 41 45 47 47 46 45 45 44 45 45 45 47
40 43 44 44 46 46 47 49 51 52 54 58 62 64 65 68 70 69 69 68 70 70 70 68 71 64 63 46 47 43 43 45 47 48 48 46 45 44 46 46 46 47 47
36 36 37 37 38 39 40 40 45 45 48 50 53 55 57 57 58 59 58 59 61 64 66 60 58 58 50 37 44 47 44 45 46 47 47 47 48 48 48 48 48 47 44
30 31 32 33 33 35 37 39 40 41 41 43 45 47 50 52 50 53 60 58 59 61 57 53 37 35 38 39 39 40 43 46 48 51 51 51 50 49 48 47 46 45 41
27 28 29 30 30 31 32 34 33 35 37 38 41 44 47 49 48 48 50 53 35 30 32 29 30 30 33 38 42 46 49 50 53 55 55 54 51 48 46 43 42 40 38
23 25 26 26 28 29 32 35 35 37 39 42 44 52 62 57 51 22 16 22 26 28 30 28 30 34 39 42 43 45 48 51 54 55 54 51 49 47 46 43 41 38 37
20 21 23 25 29 31 33 34 36 40 37 32 31 34 33 26 23 16 18 23 24 27 28 32 33 35 36 37 40 44 46 49 51 51 50 47 41 39 41 39 36 32 30
16 18 19 21 22 19 12 10 8 10 11 17 18 16 16 14 16 17 19 22 26 28 29 29 30 32 36 36 37 41 40 44 46 45 44 40 37 37 37 35 30 30 29
7 8 5 6 7 9 9 9 10 11 12 15 16 16 15 15 17 20 23 26 26 25 26 26 28 31 33 33 35 35 40 41 35 33 35 37 38 32 30 29 32 29 29
Wind_Direction
171 168 171 178 186 189 189 192 195 192 143 126 120 133 141 128 111 73 27 11 61 360 1 351 350 348 346 346 350 357 356 355 352 351 351 349 346 341 338 337 334 330 326
179 183 187 191 197 200 195 194 202 195 153 152 124 138 142 112 52 39 27 15 343 333 328 326 327 321 324 329 338 343 348 347 345 345 344 341 339 337 333 329 326 324 322
184 211 205 203 206 205 202 200 203 207 176 148 142 167 179 271 351 359 354 351 294 295 302 299 313 319 315 323 325 324 330 337 338 334 331 330 329 327 325 324 318 316 317
188 186 203 220 220 218 220 217 219 221 213 207 204 212 226 275 347 319 311 321 324 330 279 283 314 310 310 310 314 318 319 321 320 322 323 325 323 320 320 317 315 309 308
190 226 219 216 235 241 242 235 237 229 206 200 203 223 251 277 285 292 293 302 312 316 286 293 302 308 302 304 309 318 316 312 316 318 317 322 318 315 315 311 308 307 310
197 205 235 265 246 239 246 251 251 242 222 216 220 231 249 260 281 288 293 295 295 291 291 274 288 305 299 303 300 307 313 309 312 313 310 308 311 312 309 304 300 303 310
214 224 226 236 257 252 245 247 251 250 245 226 235 245 257 267 284 287 295 298 296 298 297 295 285 294 298 300 301 309 307 304 308 313 312 300 304 309 310 300 295 296 296
235 235 242 248 246 243 246 245 245 247 243 237 237 246 258 277 282 284 288 289 294 293 294 300 314 301 300 305 308 313 313 308 302 305 309 311 300 298 304 300 296 294 293
241 241 246 250 254 256 245 243 246 246 244 242 245 255 268 274 280 288 289 290 296 296 291 292 296 299 296 297 302 305 308 309 308 317 306 296 293 295 297 301 296 294 294
244 248 250 248 246 248 249 244 241 241 239 240 250 263 268 276 283 285 283 283 285 289 284 283 285 290 295 295 299 298 314 301 304 318 315 293 297 299 301 299 295 293 295
252 254 254 256 256 251 249 252 251 247 244 245 253 259 263 272 279 280 285 285 288 290 279 279 277 276 285 293 294 295 301 317 315 310 307 311 296 292 294 295 291 289 293
254 254 255 257 259 263 260 253 254 253 253 256 261 264 266 269 269 275 278 282 285 286 288 288 274 265 278 279 283 303 307 314 306 313 306 297 298 290 290 289 286 289 292
254 257 258 255 252 257 259 260 258 259 257 258 261 263 267 277 275 274 274 279 283 281 278 286 235 294 301 323 309 302 305 309 316 303 304 296 291 285 288 285 285 288 290
255 255 257 261 255 247 251 252 256 260 260 259 261 265 265 267 276 272 272 274 277 282 281 297 307 316 318 310 306 307 304 305 301 299 305 291 285 286 288 287 287 288 292
247 248 250 253 255 253 249 251 255 256 258 261 262 266 268 269 273 272 275 278 287 292 298 299 302 307 308 308 307 309 305 306 293 299 291 288 288 289 289 288 288 290 290
242 247 248 246 249 254 254 253 253 254 256 259 263 264 267 270 273 274 279 283 286 287 290 296 298 300 302 301 301 302 302 306 298 290 289 287 287 289 289 288 289 291 293
241 244 248 250 250 249 252 254 254 256 258 261 262 265 267 268 271 276 275 277 282 285 290 290 293 294 294 298 296 301 305 298 288 287 287 289 289 289 291 291 292 292 291
242 245 248 251 252 253 253 254 256 257 258 259 261 263 266 267 269 274 277 279 281 282 282 286 289 289 295 292 299 294 291 287 286 289 290 290 290 290 290 288 288 290 289
246 248 250 253 256 259 260 261 261 262 263 264 264 265 266 268 270 273 275 278 278 279 282 283 287 291 289 289 297 292 295 294 294 292 290 290 291 289 288 286 287 289 289
241 246 250 255 260 261 262 262 263 262 263 264 266 268 270 271 270 268 272 274 275 278 283 283 284 289 294 297 291 290 291 292 292 291 290 290 287 286 285 286 286 287 289
247 254 259 259 261 262 263 262 263 267 267 268 269 271 274 272 267 261 266 272 277 277 274 284 290 301 292 292 292 295 295 296 296 293 291 289 288 287 286 285 287 288 291
257 256 258 260 260 262 264 266 268 267 267 271 271 274 276 272 267 262 274 272 281 305 306 289 288 290 294 296 298 300 301 301 299 296 293 288 286 285 285 286 287 288 289
248 253 258 261 263 268 270 269 271 269 278 262 271 280 264 258 246 249 289 302 300 291 288 291 295 300 301 302 304 305 304 301 297 295 292 290 288 284 281 281 283 286 285
256 262 266 269 272 274 275 277 280 280 275 268 288 281 274 287 304 306 286 281 284 286 290 298 305 305 304 308 311 312 310 307 302 300 298 296 295 290 284 283 284 284 281
266 270 281 282 290 292 300 310 314 302 295 298 293 292 281 288 286 288 288 287 289 294 302 307 307 306 309 315 319 323 319 316 306 300 304 302 298 288 289 281 278 277 274
254 245 239 257 283 290 300 316 310 304 290 284 284 284 286 292 293 293 293 295 302 309 307 305 306 308 310 315 326 330 329 326 318 313 311 303 299 296 284 301 282 273 286
Height
5898 5901 5903 5906 5908 5910 5913 5914 5917 5919 5920 5921 5920 5921 5920 5922 5921 5921 5921 5921 5920 5919 5918 5917 5916 5914 5912 5910 5907 5904 5901 5897 5893 5890 5887 5884 5881 5878 5875 5872 5870 5866 5864
5900 5902 5903 5906 5908 5910 5912 5914 5915 5917 5919 5920 5920 5920 5919 5920 5921 5920 5919 5918 5917 5916 5916 5915 5914 5911 5910 5908 5906 5904 5901 5897 5894 5889 5886 5881 5878 5875 5872 5869 5865 5862 5859
5900 5902 5903 5905 5907 5910 5911 5913 5914 5915 5917 5918 5919 5919 5919 5919 5919 5918 5917 5917 5916 5915 5914 5912 5910 5909 5906 5904 5901 5900 5898 5895 5892 5888 5884 5880 5876 5872 5868 5865 5862 5858 5855
5898 5899 5901 5904 5905 5907 5910 5911 5913 5915 5916 5916 5916 5917 5917 5917 5917 5916 5915 5915 5913 5911 5909 5909 5907 5906 5904 5901 5897 5894 5893 5891 5888 5885 5881 5878 5874 5869 5864 5860 5856 5853 5849
5897 5898 5899 5901 5903 5905 5908 5909 5911 5913 5913 5914 5915 5915 5915 5915 5915 5914 5913 5911 5910 5908 5907 5905 5904 5900 5898 5896 5894 5893 5889 5885 5883 5878 5873 5869 5864 5862 5859 5854 5850 5845 5839
5892 5894 5896 5898 5900 5901 5903 5905 5907 5908 5910 5911 5911 5911 5911 5911 5910 5909 5908 5907 5906 5905 5904 5901 5898 5896 5893 5891 5888 5885 5884 5880 5876 5873 5867 5863 5858 5853 5849 5846 5841 5837 5831
5890 5891 5892 5893 5894 5896 5897 5899 5902 5904 5904 5906 5906 5906 5905 5906 5906 5904 5903 5902 5901 5900 5897 5896 5893 5890 5887 5884 5882 5879 5874 5871 5867 5864 5859 5854 5849 5844 5841 5836 5832 5828 5822
5885 5886 5887 5888 5889 5890 5892 5894 5895 5896 5898 5899 5901 5901 5899 5899 5899 5898 5896 5894 5893 5890 5887 5886 5883 5883 5877 5874 5870 5866 5862 5860 5856 5854 5850 5846 5839 5833 5829 5824 5822 5818 5812
5876 5879 5881 5883 5885 5886 5887 5889 5889 5889 5891 5893 5893 5893 5894 5894 5892 5889 5886 5884 5881 5879 5874 5871 5872 5870 5867 5863 5859 5855 5851 5849 5844 5841 5838 5833 5828 5822 5817 5811 5808 5806 5801
5865 5869 5872 5875 5878 5880 5882 5883 5883 5883 5885 5885 5885 5886 5886 5885 5884 5883 5879 5876 5874 5868 5866 5860 5857 5853 5849 5850 5847 5844 5842 5838 5833 5831 5825 5817 5813 5808 5803 5798 5796 5794 5789
5855 5858 5862 5865 5868 5871 5873 5875 5876 5877 5877 5879 5879 5879 5880 5879 5879 5875 5871 5866 5859 5851 5845 5843 5838 5837 5836 5837 5836 5834 5829 5824 5823 5819 5815 5810 5804 5797 5791 5786 5783 5779 5775
5846 5848 5851 5854 5858 5861 5863 5865 5867 5868 5869 5869 5869 5869 5870 5870 5869 5865 5861 5856 5848 5844 5838 5830 5801 5809 5820 5822 5815 5818 5817 5812 5807 5801 5797 5795 5791 5786 5779 5772 5769 5764 5760
5834 5836 5839 5843 5847 5850 5851 5853 5856 5857 5858 5859 5858 5856 5857 5857 5855 5854 5848 5842 5838 5837 5831 5819 5788 5793 5805 5802 5811 5808 5803 5800 5793 5788 5783 5778 5773 5769 5765 5761 5756 5750 5746
5820 5822 5826 5830 5833 5837 5840 5841 5842 5843 5844 5846 5846 5845 5843 5842 5839 5838 5836 5829 5820 5811 5800 5817 5805 5800 5799 5800 5798 5794 5789 5784 5779 5773 5769 5762 5757 5753 5752 5747 5743 5737 5730
5801 5806 5810 5816 5819 5822 5826 5828 5830 5830 5831 5833 5833 5832 5829 5826 5824 5823 5822 5816 5811 5806 5806 5802 5798 5793 5789 5786 5783 5779 5774 5768 5764 5757 5751 5748 5743 5740 5738 5733 5727 5723 5718
5789 5792 5796 5801 5806 5809 5811 5814 5816 5817 5818 5819 5818 5817 5815 5812 5810 5809 5809 5806 5803 5797 5793 5790 5785 5781 5776 5772 5769 5762 5759 5755 5748 5744 5739 5733 5730 5726 5721 5717 5713 5709 5705
5777 5781 5784 5788 5792 5795 5797 5799 5801 5803 5804 5804 5804 5803 5802 5798 5795 5795 5794 5793 5790 5786 5781 5776 5772 5768 5763 5759 5752 5748 5742 5738 5733 5729 5727 5724 5719 5713 5708 5702 5699 5694 5690
5765 5769 5774 5777 5779 5781 5782 5784 5787 5787 5788 5789 5788 5788 5786 5785 5782 5780 5780 5779 5776 5772 5767 5762 5756 5752 5748 5744 5739 5732 5728 5724 5720 5716 5713 5709 5703 5699 5695 5690 5685 5681 5676
5755 5759 5763 5765 5767 5768 5770 5771 5770 5771 5772 5772 5771 5770 5770 5768 5767 5766 5764 5762 5758 5754 5750 5747 5742 5737 5732 5724 5722 5723 5717 5712 5708 5704 5699 5693 5688 5685 5680 5676 5673 5668 5664
5746 5750 5752 5754 5755 5757 5757 5757 5755 5757 5755 5755 5753 5753 5753 5752 5751 5749 5746 5743 5740 5738 5734 5731 5728 5724 5718 5714 5714 5710 5702 5697 5694 5690 5684 5679 5675 5671 5666 5662 5659 5654 5650
5738 5741 5742 5743 5744 5745 5745 5745 5744 5744 5744 5743 5742 5739 5737 5736 5736 5734 5730 5728 5726 5725 5720 5716 5714 5712 5708 5705 5700 5695 5689 5685 5681 5676 5670 5665 5660 5655 5651 5648 5644 5641 5638
5730 5732 5733 5734 5735 5735 5735 5734 5734 5734 5732 5730 5728 5726 5723 5721 5723 5721 5722 5719 5712 5707 5708 5706 5703 5701 5696 5691 5687 5682 5677 5671 5666 5661 5655 5649 5644 5641 5637 5634 5631 5628 5625
5723 5724 5724 5724 5725 5725 5725 5723 5722 5722 5719 5713 5715 5714 5708 5708 5698 5702 5703 5703 5702 5700 5700 5695 5692 5689 5686 5681 5675 5670 5664 5658 5651 5644 5637 5632 5629 5627 5622 5621 5619 5616 5614
5716 5716 5716 5716 5716 5716 5714 5712 5710 5710 5708 5706 5704 5704 5701 5699 5696 5691 5692 5694 5693 5693 5689 5685 5680 5678 5675 5670 5665 5660 5652 5643 5636 5628 5622 5617 5615 5612 5608 5608 5607 5605 5604
5710 5710 5710 5709 5708 5707 5705 5704 5703 5703 5700 5699 5699 5695 5694 5690 5690 5688 5688 5688 5686 5683 5678 5673 5671 5668 5664 5660 5655 5647 5639 5631 5623 5616 5610 5606 5602 5599 5597 5596 5595 5594 5594
5706 5706 5707 5706 5705 5704 5702 5699 5698 5697 5697 5697 5696 5693 5690 5687 5684 5683 5682 5679 5674 5668 5666 5665 5664 5660 5656 5650 5642 5634 5627 5619 5611 5607 5601 5596 5593 5589 5588 5586 5584 5585 5584